DW7639 Weather Reports


Display with metric or nautical units.
time (UTC)temp
F
wind
direction
speed
MPH
gust
MPH
rain 1hr
in
rain 24hr
in
rain mn
in
humidity
%
barometer
mb
20260502151558 53 197 2.0 7.0 0.00 0.00 0.00 42 1014.5
20260502150518 52 209 2.0 4.0 0.00 0.00 0.00 47 1014.6
20260502130537 46 337 2.0 4.0 0.00 0.00 0.00 59 1014.8
20260502123517 45 180 3.0 6.0 0.00 0.00 0.00 58 1014.6
20260502122516 45 49 1.0 3.0 0.00 0.00 0.00 64 1014.7
20260502121516 44 28 1.0 3.0 0.00 0.00 0.00 64 1014.8
20260502120536 44 19 1.0 3.0 0.00 0.00 0.00 67 1014.6
20260502115516 44 51 0.0 2.0 0.00 0.00 0.00 66 1014.7
20260502114516 43 27 0.0 1.0 0.00 0.00 0.00 71 1014.7
20260502113536 43 197 0.0 2.0 0.00 0.00 0.00 71 1014.6
20260502112517 43 125 0.0 2.0 0.00 0.00 0.00 72 1014.4
20260502111516 43 97 0.0 2.0 0.00 0.00 0.00 69 1014.3
20260502110517 42 354 1.0 3.0 0.00 0.00 0.00 70 1014.4
20260502105517 42 334 0.0 2.0 0.00 0.00 0.00 72 1014.3
20260502104517 42 22 1.0 2.0 0.00 0.00 0.00 70 1014.3
20260502103537 41 21 1.0 3.0 0.00 0.00 0.00 76 1014.4
20260502102538 41 227 1.0 2.0 0.00 0.00 0.00 76 1014.5
20260502101518 42 25 0.0 2.0 0.00 0.00 0.00 75 1014.6
20260502100518 42 42 0.0 3.0 0.00 0.00 0.00 73 1014.6
20260502091515 43 71 1.0 3.0 0.00 0.00 0.00 69 1014.5
20260502090516 43 139 1.0 2.0 0.00 0.00 0.00 69 1014.5
20260502071518 48 267 2.0 5.0 0.00 0.00 0.00 58 1014.2
20260502070518 48 317 2.0 6.0 0.00 0.00 0.00 59 1014.3
20260502065518 48 203 2.0 11.0 0.00 0.00 0.00 64 1014.3
20260502064519 48 256 1.0 4.0 0.00 0.00 0.00 70 1014.4
20260502063556 47 61 0.0 1.0 0.00 0.00 0.00 74 1014.5
20260502062536 47 358 1.0 3.0 0.00 0.00 0.00 75 1014.4
20260502061516 48 40 0.0 2.0 0.00 0.00 0.00 74 1014.4
20260502060516 48 26 0.0 1.0 0.00 0.00 0.00 72 1014.4
20260502055516 48 102 0.0 1.0 0.00 0.00 0.00 70 1014.5
20260502054519 48 146 1.0 4.0 0.00 0.00 0.00 72 1014.3
20260502053516 48 132 0.0 1.0 0.00 0.00 0.00 70 1014.3
20260502052537 48 310 2.0 4.0 0.00 0.00 0.00 68 1014.3
20260502051517 49 352 0.0 2.0 0.00 0.00 0.00 70 1014.2
20260502050537 49 33 0.0 2.0 0.00 0.00 0.00 67 1014.1
20260502045517 50 0 0.0 1.0 0.00 0.00 0.00 65 1014.3
20260502044517 50 202 1.0 2.0 0.00 0.00 0.00 65 1014.5
20260502043517 50 18 0.0 2.0 0.00 0.00 0.00 68 1014.4
20260502042518 50 221 1.0 4.0 0.00 0.00 0.00 65 1014.3
20260502041538 50 335 1.0 2.0 0.00 0.00 0.00 69 1014.4
20260502040518 50 60 0.0 1.0 0.00 0.00 0.00 68 1014.2
20260502035538 51 259 0.0 2.0 0.00 0.00 0.00 66 1014.1
20260502034538 52 306 1.0 3.0 0.00 0.00 0.00 63 1014.1
20260502033516 52 328 1.0 2.0 0.00 0.00 0.00 66 1014.2
20260502032516 52 288 1.0 6.0 0.00 0.00 0.00 66 1014.2
20260502031516 52 334 0.0 2.0 0.00 0.00 0.00 66 1014.1
20260502030516 53 307 1.0 4.0 0.00 0.00 0.00 66 1014.0
20260502025516 52 289 1.0 6.0 0.00 0.00 0.00 66 1014.0
20260502024516 52 235 1.0 2.0 0.00 0.00 0.00 69 1014.0
20260502023516 53 195 0.0 1.0 0.00 0.00 0.00 67 1013.9
20260502022536 53 141 0.0 2.0 0.00 0.00 0.00 66 1013.7
20260502021517 53 308 0.0 2.0 0.00 0.00 0.00 66 1013.5
20260502020517 53 285 1.0 4.0 0.00 0.00 0.00 65 1013.2
20260502015517 54 138 1.0 3.0 0.00 0.00 0.00 67 1012.7
20260502014517 55 152 1.0 2.0 0.00 0.00 0.00 65 1012.6
20260502013542 56 122 1.0 2.0 0.00 0.00 0.00 61 1012.4
20260502012517 57 207 1.0 4.0 0.00 0.00 0.00 55 1012.2
20260502011518 57 198 1.0 4.0 0.00 0.00 0.00 52 1011.9
20260502010538 57 250 1.0 5.0 0.00 0.00 0.00 51 1011.7
20260502005516 56 198 1.0 4.0 0.00 0.00 0.00 50 1011.6
20260502004515 55 344 0.0 1.0 0.00 0.00 0.00 58 1011.2
20260502003518 56 16 0.0 1.0 0.00 0.00 0.00 54 1011.0
20260502002515 57 70 0.0 2.0 0.00 0.00 0.00 53 1010.8
20260502001516 58 74 1.0 2.0 0.00 0.00 0.00 52 1010.7
20260502000516 59 39 0.0 1.0 0.00 0.00 0.00 52 1010.5
20260501235516 61 210 1.0 2.0 0.00 0.00 0.00 50 1010.4
20260501234516 62 205 1.0 3.0 0.00 0.00 0.00 45 1010.1
20260501233516 63 252 1.0 4.0 0.00 0.00 0.00 44 1010.1
20260501232537 64 321 1.0 3.0 0.00 0.00 0.00 40 1010.0
20260501231517 64 335 1.0 4.0 0.00 0.00 0.00 38 1010.1
20260501230537 65 215 2.0 5.0 0.00 0.00 0.00 40 1010.1
20260501225517 66 316 1.0 3.0 0.00 0.00 0.00 43 1010.0
20260501224518 66 304 1.0 3.0 0.00 0.00 0.00 34 1009.9
20260501223517 66 142 2.0 5.0 0.00 0.00 0.00 39 1009.9
20260501222518 66 301 2.0 3.0 0.00 0.00 0.00 45 1009.9
20260501221518 65 272 2.0 6.0 0.00 0.00 0.00 44 1009.9
20260501220518 65 46 1.0 6.0 0.00 0.00 0.00 43 1010.0
20260501215515 66 174 2.0 6.0 0.00 0.00 0.00 44 1009.9
20260501214519 66 198 2.0 5.0 0.00 0.00 0.00 42 1010.0
20260501213516 65 347 2.0 10.0 0.00 0.00 0.00 44 1010.0
20260501212516 65 351 2.0 7.0 0.00 0.00 0.00 44 1010.1
20260501211516 66 335 1.0 4.0 0.00 0.00 0.00 40 1010.2
20260501210536 66 155 2.0 4.0 0.00 0.00 0.00 40 1010.2
20260501205517 67 344 1.0 6.0 0.00 0.00 0.00 40 1010.2
20260501204517 66 323 2.0 6.0 0.00 0.00 0.00 41 1010.2
20260501203517 67 301 1.0 3.0 0.00 0.00 0.00 39 1010.2
20260501202537 69 26 2.0 7.0 0.00 0.00 0.00 36 1010.3
20260501201517 68 34 2.0 8.0 0.00 0.00 0.00 38 1010.5
20260501200538 68 250 2.0 7.0 0.00 0.00 0.00 37 1010.5
20260501195538 67 315 2.0 5.0 0.00 0.00 0.00 38 1010.8
20260501194518 67 327 2.0 5.0 0.00 0.00 0.00 39 1010.9
20260501193538 67 348 2.0 5.0 0.00 0.00 0.00 38 1011.1
20260501192518 67 7 2.0 5.0 0.00 0.00 0.00 39 1011.3
20260501191515 67 110 2.0 8.0 0.00 0.00 0.00 37 1011.5
20260501190516 68 209 3.0 6.0 0.00 0.00 0.00 34 1011.8
20260501185516 67 220 5.0 10.0 0.00 0.00 0.00 34 1011.9
20260501184516 67 309 4.0 7.0 0.00 0.00 0.00 34 1012.1
20260501183516 67 340 3.0 8.0 0.00 0.00 0.00 32 1012.1
20260501182516 66 193 2.0 6.0 0.00 0.00 0.00 34 1012.4
20260501181516 66 285 3.0 6.0 0.00 0.00 0.00 35 1012.5
20260501180516 67 202 2.0 4.0 0.00 0.00 0.00 34 1012.7
20260501175522 66 1 3.0 8.0 0.00 0.00 0.00 34 1013.0
20260501174602 65 290 3.0 10.0 0.00 0.00 0.00 35 1013.2
20260501173522 65 275 3.0 8.0 0.00 0.00 0.00 36 1013.2
20260501172557 65 190 3.0 5.0 0.00 0.00 0.00 35 1013.5
20260501171517 65 150 2.0 4.0 0.00 0.00 0.00 37 1013.7
20260501170517 63 39 2.0 4.0 0.00 0.00 0.00 38 1013.7
20260501165518 63 334 2.0 4.0 0.00 0.00 0.00 40 1013.9
20260501164518 64 58 2.0 5.0 0.00 0.00 0.00 39 1013.9
20260501163518 63 344 2.0 6.0 0.00 0.00 0.00 38 1014.2
20260501162519 63 268 2.0 6.0 0.00 0.00 0.00 40 1014.4
20260501161518 63 36 3.0 6.0 0.00 0.00 0.00 40 1014.6
20260501160535 61 332 1.0 5.0 0.00 0.00 0.00 44 1014.7
20260501155515 60 175 2.0 5.0 0.00 0.00 0.00 41 1014.9